Погода в Туркменбаши

Погода в Туркменбаши : погода сейчас, прогноз погоды и архив. Всё, что Вы хотите узнать о погоде в Туркменбаши!

Поиск расширенной информации на нашем сайте:

Другие новости

Новости СМИ2

Главная страница сайта

Новости сайта

03.07.2017

Напоминаем, что на нашем специализированном сайте Метеоцентр.Азия вы можете получить высокодетализированные автоматические прогнозы погоды по пунктам России, СНГ и мира в авиационном формате (включающие направление и скорость ветра, видимость, явления погоды, количество и форму облачности, нижнюю и верхнюю границу облачности).

Рекомендуем: Видеоэндоскопы mitcorp видеоэндоскоп.

Погода в Туркменбаши - сегодня

Время (UTC), дата Ветер
(°,м/с) 
Видим.   Явления Облачность Т
(°С)
Тd
(°С)
f(%) Тe
(°С)
Pmin
(гПа)
dP
(гПа)
Po
(мм)
O2
(г/м3)
Тmin Tmax R s Состояние
почвы
06 20.05.18 150 (ЮВ) 20000 м    3/0 верхняя 
[Ci fib]
+30.6 +4 19 +31  1017.7  0.3  756  273  +18.6         
09 20.05.18 180 (Ю) 20000 м    4/0 верхняя 
[Ci fib]
+32.3 +3 16 +32  1017.4  -0.3  756  272           
12 20.05.18 220 (ЮЗ) 20000 м    4/0 верхняя 
[Ci fib]
+32.1 +3.2 16 +32  1015.7  -1.6  755  272           
15 20.05.18 310 (СЗ) 20000 м    3/0 верхняя 
[Ci fib]
+29.7 +2.9 18 +30  1015.1  -0.7  754  274    +32.7       
18 20.05.18 350 (С) 4000 м    ясно 
+22.8 +7.7 38 +23  1015.6  0.3  754  279    +32.7       
21 20.05.18 тихо ()   4000 м    ясно 
+20.9 +8.8 46 +21  1015.7  0.1  755  281           
00 21.05.18 тихо ()   4000 м    ясно 
+19.7 +8.1 47 +20  1015.3  -0.5  754  282           
03 21.05.18 080 (В) 20000 м    6/0 верхняя 
[Ci fib]
+26.2 +4.8 25 +26  1015.8  0.7  755  277           
06 21.05.18 100 (В) 20000 м    3/0 верхняя 
[Ci fib]
+33.1 +3.4 15 +33  1015.6  755  271  +19.7         
09 21.05.18 170 (Ю) 20000 м    3/0 верхняя 
[Ci fib]
+34 +3.6 15 +34  1015.1  -0.4  754  270           
12 21.05.18 170 (Ю) 20000 м    5/0 средняя, верхняя 
[Ac trans|Ci fib]
+33.2 +4 16 +33  1014.1  -1  754  270           
15 21.05.18 280 (З) 20000 м    4/0 верхняя 
[Ci fib]
+32 +4.1 17 +32  1013.7  -0.5  753  271    +34.7       
18 21.05.18 тихо ()   4000 м    ясно 
+25.5 +8.8 35 +26  1014.4  0.5  754  276    +34.7       
21 21.05.18 тихо ()   4000 м    ясно 
+21.7 +1.7 27 +22  1014.9  0.4  754  281           
00 22.05.18 080 (В) 4000 м    ясно 
+24.9 -0.5 19 +25  1015.2  0.3  754  279           
03 22.05.18 090 (В) 20000 м    3/0 верхняя 
[Ci fib]
+26.8 +1.1 19 +27  1016.1  755  277           
06 22.05.18 120 (ЮВ) 20000 м    ясно 
+33 +3 15 +33  1017.8  1.8  756  271  +21.7         
09 22.05.18 160 (Ю) 20000 м    ясно 
+35.2 +4.1 14 +35  1017.4  -0.2  756  269           
12 22.05.18 260 (З) 20000 м    ясно 
+33.8 +5.3 17 +34  1017.3  -0.2  756  270           
15 22.05.18 310 (СЗ) 20000 м    ясно 
+31.6 +10.9 28 +34  1016.5  -0.8  755  271    +36.4       
18 22.05.18 тихо ()   4000 м    ясно 
+24.4 +2.3 24 +24  1018.3  1.5  756  279    +36.4       
21 22.05.18 090 (В) 4000 м    ясно 
+23.2 +8.1 38 +23  1018.6  0.3  757  280           
00 23.05.18 090 (В) 4000 м    ясно 
+20.8 +3.8 33 +21  1018.2  -0.5  756  283           
03 23.05.18 080 (В) 20000 м    3/0 верхняя 
[Ci fib]
+28.6 +0.2 16 +29  1018.6  0.6  757  276           
06 23.05.18 130 (ЮВ) 20000 м    ясно 
+32 +2.3 15 +32  1019.4  0.9  757  273  +20.8         
Время (UTC), дата Ветер
(°,м/с) 
Видим.   Явления Облачность Т
(°С)
Тd
(°С)
f(%) Тe
(°С)
Pmin
(гПа)
dP
(гПа)
Po
(мм)
O2
(г/м3)
Тmin Tmax R s Состояние
почвы

Для получения пояснительной информации подведите курсор к названию столбца.

ПОГОДА в Туркменбаши - архив

Всё, что Вы хотите узнать о погоде в Туркменбаши - удобно и подробно!

Выберите нужную дату (начиная с 1 января 2015* года) и нажмите кнопку "Найти".
Будут отображены архивные сводки погоды по пункту Туркменбаши, начиная с указанной даты.


Отображать данные в формате CSV (для использования в таблицах Excel)


Внимание! Наш архив погоды предназначен исключительно для личного некоммерческого использования в познавательных целях. Если Вам необходимы официальные справки о состоянии погоды (для производственных, юридических, коммерческих и т.п. целей), обращайтесь в органы Росгидромета.

*Примечание: данная дата относится к архиву по метеостанциям СССР (Россия, СНГ, Балтия).
Архив по метеостанциям Зарубежной Европы и Азии (кроме Китая) хранится 10 дней, по другим регионам земного шара (Китай, Африка, Америка, Австралия, Океания) - 1 день.

Туркменбаши - район местоположения метеостанции


Название, широта, долгота, высота метеостанции:
Туркменбаши (Красноводск) 40.1°ш. 53°д. -13 м над ур. моря [Туркменистан]

Дополнительная информация

В oтличие oт бoльшинства пoгoдных сайтoв мы публикуем пoдрoбную метеoинфoрмацию в детальнoм прoфессиoнальнoм фoрмате.

Характеристики температуры и влажнoсти вoздуха измеряются на высoте 2 м в тени вдали oт зданий и деревьев.
Скoрoсть ветра измеряется на высoте 10 м (на урoвне рoста челoвека скoрoсть ветра ниже в 1.5-2 раза). Если метеoстанция нахoдится в гoрoде или в лесу, тo скoрoсть ветра занижена на 2-4 м/с пo сравнению с oткрытым местoм. Скoрoсть ветра над акватoриями крупных рек и oзёр, а также на вершинах хoлмoв на 2-5 м/с выше, чем в oбычных услoвиях.
Атмoсфернoе давление в разных тoчках местнoсти мoжет значительнo oтличаться oт давления на метеoстанции, в зависимoсти oт услoвий рельефа (при пoдъёме на 10 м давление пoнижается примернo на 1 мм рт.ст.).